Regional Weather Roundup
Issued by NWS Sterling, VA

Current Version | Previous Version | Text Only | Print | Product List | Glossary On
Versions: 1 2 3 4 5 6 7 8 9 10 11 12 13 14 15 16 17 18 19 20 21 22 23 24 25 26 27 28 29 30 31 32 33 34 35 36 37 38 39 40 41 42 43 44 45 46 47 48 49 50
000
ASUS41 KLWX 202110
RWRLWX

REGIONAL WEATHER ROUNDUP
NATIONAL WEATHER SERVICE BALTIMORE MD/WASHINGTON DC
500 PM EDT SAT SEP 20 2014

Note: "FAIR" indicates few or no clouds below 12,000 feet
with no significant weather and/or obstructions to visibility.
 TC=TEMPERATURE CELSIUS

 * =Non NWS site. Station does not report precipitation (e.g. rain,
    snow, etc.), thunder, or fog.

DCZ001-MDZ009-015-VAZ040>042-051-053>054-202200-
WASHINGTON METRO

CITY           SKY/WX    TMP DP  RH WIND       PRES   REMARKS
WASHINGTON NAT MOSUNNY   83  56  39 S6        30.09F
DULLES         MOSUNNY   78  56  46 SE10      30.10F
ANDREWS AFB    SUNNY     78  58  50 SE8       30.10F
QUANTICO       SUNNY     80  55  42 S8        30.10F
COLLEGE PARK*  MOSUNNY   81  59  47 SE5       30.09F
LEESBURG*      SUNNY     81  57  44 S9        30.09F
MANASSAS*      SUNNY     79  55  44 SE10      30.09F
GAITHERSBURG*  SUNNY     77  57  50 SE10      30.13F

$$

MDZ006>007-011-014-202200-
BALTIMORE METRO

CITY           SKY/WX    TMP DP  RH WIND       PRES   REMARKS
BWI AIRPORT    MOSUNNY   78  54  43 SE9       30.10F
MD SCIENCE CTR   N/A     79  57  46 MISG      30.10F
MARTIN STATE   MOSUNNY   81  61  50 S6        30.12F
ANNAPOLIS      SUNNY     76  60  57 S6        30.10F
FORT MEADE*    SUNNY     75  54  46 SE6       30.12F

$$

MDZ012-015-019>023-202200-
MARYLAND EASTERN SHORE

CITY           SKY/WX    TMP DP  RH WIND       PRES   REMARKS
OCEAN CITY     PTSUNNY   72  64  76 E10       30.12F
SALISBURY      MOSUNNY   77  59  53 E12       30.11F
BAY BRIDGE AP*   N/A     77  57  50 W7        30.10F
CAMBRIDGE*     MOSUNNY   79  55  44 E3        30.10F
EASTON*        MOSUNNY   81  59  47 SE8       30.14F

$$

MDZ017>025-202200-
SOUTHERN MARYLAND

CITY           SKY/WX    TMP DP  RH WIND       PRES   REMARKS
PATUXENT RIVER MOSUNNY   76  62  62 SE7       30.11S
ST INIGOES     MOSUNNY   76  61  59 E7        30.10F
LEONARDTOWN*   MOSUNNY   77  59  53 SE7       30.12F

$$

MDZ003>005-202200-
NORTH CENTRAL MARYLAND

CITY           SKY/WX    TMP DP  RH WIND       PRES   REMARKS
FREDERICK*     SUNNY     84  55  37 S8        30.11F
HAGERSTOWN APT SUNNY     78  56  46 S13       30.07F
WESTMINSTER*   MOSUNNY   79  57  47 SE10G16     N/A

$$

MDZ501>502-202200-
WESTERN MARYLAND

CITY           SKY/WX    TMP DP  RH WIND       PRES   REMARKS
OAKLAND*       SUNNY     72  54  53 SW6       30.13F
CUMBERLAND*    MOSUNNY   86  54  32 S9        30.07S

$$

VAZ025>031-202200-
SHENANDOAH VALLEY

CITY           SKY/WX    TMP DP  RH WIND       PRES   REMARKS
WINCHESTER*    SUNNY     81  55  41 S12       30.07F
STAUNTON*      SUNNY     79  52  38 SE8       30.11F

$$

WVZ021-048>050-054>055-202200-
EASTERN WEST VIRGINIA PANHANDLE

CITY           SKY/WX    TMP DP  RH WIND       PRES   REMARKS
MARTINSBURG    SUNNY     80  55  42 SE10      30.07F
PETERSBURG*    MOSUNNY   82  49  31 SE8       30.05F

$$

VAZ036>039-050-202200-
CENTRAL FOOTHILLS

CITY           SKY/WX    TMP DP  RH WIND       PRES   REMARKS
CHARLOTTESVILL SUNNY     79  55  43 CALM      30.09F
ORANGE*        SUNNY     81  52  36 S3        30.10F

$$

VAZ055>057-202200-
NORTH AND CENTRAL PIEDMONT

CITY           SKY/WX    TMP DP  RH WIND       PRES   REMARKS
FREDERICKSBRG* SUNNY     82  58  44 E6        30.08F
STAFFORD*      SUNNY     80  57  46 E10       30.13F

$$

NCZ024-NYZ072-PAZ021-071-VAZ022-071-202200-
OTHER REGIONAL OBSERVATIONS

CITY           SKY/WX    TMP DP  RH WIND       PRES   REMARKS
NEW YORK CITY  MOSUNNY   72  58  61 SE9       30.18F
PHILADELPHIA   MOSUNNY   78  60  53 SE12      30.13F
PITTSBURGH     PTSUNNY   77  60  55 S13       30.00F
ROANOKE        MOSUNNY   77  55  46 VRB3      30.12F
RICHMOND       PTSUNNY   80  58  46 E10       30.08F
RALEIGH        PTSUNNY   79  57  46 NE8       30.05F

$$

ANZ530>537-202200-
MARINE OBSERVATIONS

STATION/POSITION TIME  TEMP    WIND        PRES
                       AIR SEA DIR/SP/G
                 (UTC) (F)     (DEG/KT/KT) (MB)
THOMAS PT LIGHT  2100   74 74  200/  4/  5 1020.3F
BALT KEY BRIDGE  2100   75     120/  5/  5 1019.2F
COVE POINT       2100   73     190/  8/  9 1019.4F
LEWISETTA        2100   74 75  120/ 11/ 12 1018.9F
SOLOMONS ISLAND  2100      78                N/A
PINEY POINT      2100          170/ 10/ 11   N/A

$$



USA.gov is the U.S. government's official web portal to all federal, state and local government web resources and services.